• In Belgium
  • List of Countries
  • For 7 days
  • Water Temperature
  • Satellite Maps
  • Weather Map
  • Weather Widgets
  • user-avatar
    Login

    Hourly Weather La Roche-en-Ardenne

    Today, 18 January, Thursday

    Time Temperature Precipitation Wind Pressure Humidity
    00:00 +2°C° 0 mm 5 mps 748 mmHg 83%
    01:00 +2°C° 0.6 mm 7 mps 747 mmHg 83%
    02:00 +2°C° 0.6 mm 8 mps 745 mmHg 84%
    03:00 +2°C° 0.6 mm 9 mps 744 mmHg 84%
    04:00 +3°C° 0.5 mm 10 mps 742 mmHg 83%
    05:00 +5°C° 0.5 mm 10 mps 741 mmHg 83%
    06:00 +4°C° 0 mm 11 mps 738 mmHg 79%
    07:00 +4°C° 0.2 mm 12 mps 738 mmHg 76%
    08:00 +5°C° 0.2 mm 13 mps 738 mmHg 73%
    09:00 +6°C° 0.2 mm 14 mps 738 mmHg 70%
    10:00 +5°C° 0.1 mm 13 mps 739 mmHg 69%
    11:00 +5°C° 0.1 mm 12 mps 741 mmHg 68%
    12:00 +4°C° 0.1 mm 11 mps 742 mmHg 67%
    13:00 +5°C° 0.2 mm 10 mps 743 mmHg 67%
    14:00 +4°C° 0.2 mm 8 mps 744 mmHg 68%
    15:00 +4°C° 0.2 mm 7 mps 745 mmHg 69%
    16:00 +4°C° 0.2 mm 6 mps 745 mmHg 73%
    17:00 +3°C° 0.2 mm 5 mps 745 mmHg 78%
    18:00 +4°C° 0.2 mm 3 mps 745 mmHg 82%
    19:00 +4°C° 0.4 mm 4 mps 745 mmHg 83%
    20:00 +4°C° 0.4 mm 4 mps 745 mmHg 84%
    21:00 +4°C° 0.4 mm 4 mps 745 mmHg 85%
    22:00 +3°C° 0.3 mm 4 mps 746 mmHg 84%
    23:00 +2°C° 0.3 mm 5 mps 746 mmHg 84%

    Tomorrow, 19 January, Friday

    Time Temperature Precipitation Wind Pressure Humidity
    00:00 +2°C° 0.3 mm 5 mps 746 mmHg 83%
    01:00 +2°C° 0.1 mm 5 mps 746 mmHg 83%
    02:00 +1°C° 0.1 mm 5 mps 747 mmHg 84%
    03:00 +1°C° 0.1 mm 5 mps 747 mmHg 84%
    04:00 +1°C° 0 mm 5 mps 747 mmHg 84%
    05:00 +1°C° 0 mm 5 mps 748 mmHg 84%
    06:00 0°C° 0 mm 5 mps 748 mmHg 85%
    07:00 +1°C° 0 mm 5 mps 749 mmHg 84%
    08:00 +1°C° 0 mm 5 mps 749 mmHg 83%
    09:00 +1°C° 0 mm 5 mps 750 mmHg 83%
    10:00 +2°C° 0 mm 5 mps 750 mmHg 79%
    11:00 +2°C° 0 mm 6 mps 750 mmHg 74%
    12:00 +3°C° 0 mm 6 mps 750 mmHg 70%
    13:00 +3°C° 0.1 mm 5 mps 750 mmHg 70%
    14:00 +3°C° 0.1 mm 5 mps 750 mmHg 70%
    15:00 +4°C° 0.1 mm 4 mps 750 mmHg 70%
    16:00 +3°C° 0.1 mm 4 mps 750 mmHg 73%
    17:00 +1°C° 0.1 mm 4 mps 751 mmHg 76%
    18:00 +1°C° 0.1 mm 4 mps 751 mmHg 79%
    19:00 +1°C° 0.2 mm 4 mps 751 mmHg 80%
    20:00 +1°C° 0.2 mm 5 mps 751 mmHg 81%
    21:00 +1°C° 0.2 mm 5 mps 751 mmHg 82%
    22:00 0°C° 0.1 mm 5 mps 751 mmHg 82%
    23:00 0°C° 0.1 mm 5 mps 751 mmHg 83%

    Day after tomorrow, 20 January, Saturday

    Time Temperature Precipitation Wind Pressure Humidity
    00:00 0°C° 0.1 mm 5 mps 751 mmHg 83%
    01:00 0°C° 0 mm 5 mps 751 mmHg 84%
    02:00 0°C° 0 mm 5 mps 750 mmHg 84%
    03:00 -1°C° 0 mm 4 mps 750 mmHg 85%
    04:00 -1°C° 0 mm 4 mps 750 mmHg 86%
    05:00 -1°C° 0 mm 4 mps 750 mmHg 87%
    06:00 -1°C° 0 mm 4 mps 750 mmHg 89%
    07:00 -1°C° 0 mm 4 mps 749 mmHg 89%
    08:00 +1°C° 0 mm 3 mps 749 mmHg 89%
    09:00 +1°C° 0 mm 3 mps 749 mmHg 89%
    10:00 +2°C° 0.1 mm 3 mps 748 mmHg 86%
    11:00 +2°C° 0.1 mm 3 mps 748 mmHg 83%
    12:00 +3°C° 0.1 mm 3 mps 747 mmHg 80%
    13:00 +3°C° 0.1 mm 3 mps 748 mmHg 80%
    14:00 +3°C° 0.1 mm 3 mps 748 mmHg 80%
    15:00 +3°C° 0.1 mm 3 mps 748 mmHg 81%
    16:00 +2°C° 0.1 mm 3 mps 749 mmHg 83%
    17:00 +1°C° 0.1 mm 3 mps 749 mmHg 85%
    18:00 0°C° 0.1 mm 4 mps 750 mmHg 87%
    19:00 +1°C° 0 mm 3 mps 751 mmHg 87%
    20:00 0°C° 0 mm 3 mps 752 mmHg 87%
    21:00 0°C° 0 mm 3 mps 753 mmHg 87%
    22:00 0°C° 0 mm 3 mps 753 mmHg 87%
    23:00 0°C° 0 mm 3 mps 754 mmHg 88%

    21 January, Sunday

    Time Temperature Precipitation Wind Pressure Humidity
    00:00 -1°C° 0 mm 3 mps 755 mmHg 88%
    01:00 0°C° 0 mm 3 mps 755 mmHg 88%
    02:00 +1°C° 0 mm 2 mps 756 mmHg 88%
    03:00 +1°C° 0 mm 2 mps 756 mmHg 88%
    04:00 +1°C° 0 mm 2 mps 756 mmHg 88%
    05:00 +1°C° 0 mm 2 mps 756 mmHg 88%
    06:00 +1°C° 0 mm 2 mps 756 mmHg 88%
    07:00 0°C° 0.1 mm 3 mps 756 mmHg 87%
    08:00 +1°C° 0.1 mm 3 mps 757 mmHg 85%
    09:00 +1°C° 0.1 mm 3 mps 757 mmHg 84%
    10:00 +1°C° 0.4 mm 3 mps 756 mmHg 85%
    11:00 0°C° 0.4 mm 4 mps 756 mmHg 86%
    12:00 +1°C° 0.4 mm 4 mps 756 mmHg 86%
    13:00 +1°C° 0.5 mm 4 mps 755 mmHg 86%
    14:00 +1°C° 0.5 mm 5 mps 754 mmHg 86%
    15:00 +1°C° 0.5 mm 5 mps 754 mmHg 86%
    16:00 +1°C° 1.5 mm 5 mps 753 mmHg 88%
    17:00 +1°C° 1.5 mm 5 mps 753 mmHg 90%
    18:00 +2°C° 1.5 mm 5 mps 752 mmHg 92%
    19:00 +3°C° 2.7 mm 4 mps 752 mmHg 94%
    20:00 +4°C° 2.7 mm 4 mps 752 mmHg 95%
    21:00 +5°C° 2.7 mm 4 mps 752 mmHg 97%
    22:00 +6°C° 0.9 mm 4 mps 752 mmHg 97%
    23:00 +7°C° 0.9 mm 4 mps 752 mmHg 97%

    22 January, Monday

    Time Temperature Precipitation Wind Pressure Humidity
    00:00 +8°C° 0.9 mm 5 mps 752 mmHg 97%
    01:00 +8°C° 0.2 mm 4 mps 753 mmHg 97%
    02:00 +8°C° 0.2 mm 4 mps 753 mmHg 97%
    03:00 +8°C° 0.2 mm 4 mps 754 mmHg 97%
    04:00 +8°C° 0.1 mm 4 mps 754 mmHg 97%
    05:00 +9°C° 0.1 mm 3 mps 755 mmHg 98%
    06:00 +8°C° 0.1 mm 2 mps 755 mmHg 98%
    07:00 +8°C° 0.1 mm 2 mps 755 mmHg 98%
    08:00 +9°C° 0.1 mm 2 mps 756 mmHg 98%
    09:00 +9°C° 0.1 mm 2 mps 756 mmHg 98%
    10:00 +9°C° 0.1 mm 2 mps 756 mmHg 97%
    11:00 +9°C° 0.1 mm 2 mps 756 mmHg 97%
    12:00 +10°C° 0.1 mm 3 mps 756 mmHg 96%
    13:00 +10°C° 0.4 mm 3 mps 756 mmHg 96%
    14:00 +10°C° 0.4 mm 3 mps 756 mmHg 96%
    15:00 +10°C° 0.4 mm 4 mps 756 mmHg 96%
    16:00 +10°C° 0.3 mm 4 mps 756 mmHg 95%
    17:00 +10°C° 0.3 mm 5 mps 756 mmHg 93%
    18:00 +10°C° 0.3 mm 5 mps 756 mmHg 92%
    19:00 +10°C° 0.1 mm 6 mps 756 mmHg 92%
    20:00 +10°C° 0.1 mm 6 mps 756 mmHg 91%
    21:00 +10°C° 0.1 mm 6 mps 756 mmHg 91%
    22:00 +10°C° 0.2 mm 6 mps 756 mmHg 89%
    23:00 +10°C° 0.2 mm 7 mps 756 mmHg 88%

    23 January, Tuesday

    Time Temperature Precipitation Wind Pressure Humidity
    00:00 +10°C° 0.2 mm 7 mps 756 mmHg 87%
    01:00 +10°C° 0.1 mm 7 mps 756 mmHg 87%
    02:00 +10°C° 0.1 mm 7 mps 756 mmHg 88%
    03:00 +10°C° 0.1 mm 7 mps 756 mmHg 88%
    04:00 +10°C° 0.1 mm 6 mps 757 mmHg 88%
    05:00 +10°C° 0.1 mm 6 mps 757 mmHg 88%
    06:00 +10°C° 0.1 mm 6 mps 757 mmHg 88%
    07:00 +10°C° 0 mm 6 mps 758 mmHg 86%
    08:00 +10°C° 0 mm 6 mps 758 mmHg 85%
    09:00 +10°C° 0 mm 6 mps 759 mmHg 83%
    10:00 +10°C° 0.1 mm 7 mps 759 mmHg 83%
    11:00 +10°C° 0.1 mm 7 mps 760 mmHg 83%
    12:00 +11°C° 0.1 mm 7 mps 760 mmHg 82%
    13:00 +11°C° 0.1 mm 6 mps 760 mmHg 83%
    14:00 +12°C° 0.1 mm 5 mps 761 mmHg 83%
    15:00 +10°C° 0.1 mm 5 mps 761 mmHg 83%
    16:00 +11°C° 0.1 mm 4 mps 761 mmHg 86%
    17:00 +10°C° 0.1 mm 3 mps 761 mmHg 89%
    18:00 +9°C° 0.1 mm 3 mps 762 mmHg 92%
    19:00 +9°C° 0 mm 3 mps 762 mmHg 92%
    20:00 +9°C° 0 mm 3 mps 762 mmHg 93%
    21:00 +8°C° 0 mm 4 mps 762 mmHg 93%
    22:00 +8°C° 0 mm 4 mps 762 mmHg 93%
    23:00 +8°C° 0 mm 4 mps 762 mmHg 93%
    Show more